TimeCDT,TemperatureF,Dew PointF,Humidity,Sea Level PressureIn,VisibilityMPH,Wind Direction,Wind SpeedMPH,Gust SpeedMPH,PrecipitationIn,Events,Conditions,WindDirDegrees,DateUTC
12:56 AM,68.0,60.1,76,30.00,10.0,SSW,3.5,-,N/A,,Clear,200,2013-07-25 05:56:00
1:56 AM,69.1,60.1,73,30.01,10.0,SSW,6.9,-,N/A,,Clear,210,2013-07-25 06:56:00
2:56 AM,68.0,60.1,76,30.00,10.0,SSW,8.1,-,N/A,,Clear,200,2013-07-25 07:56:00
3:56 AM,66.9,60.1,79,29.98,10.0,SSW,6.9,-,N/A,,Clear,210,2013-07-25 08:56:00
4:56 AM,68.0,61.0,78,29.98,10.0,SSW,8.1,-,N/A,,Partly Cloudy,210,2013-07-25 09:56:00
5:56 AM,66.9,61.0,81,29.98,10.0,SSW,8.1,-,N/A,,Scattered Clouds,210,2013-07-25 10:56:00
6:56 AM,66.9,62.1,84,29.99,10.0,SSW,4.6,-,N/A,,Mostly Cloudy,200,2013-07-25 11:56:00
7:56 AM,70.0,63.0,78,29.98,10.0,SSW,5.8,-,N/A,,Mostly Cloudy,210,2013-07-25 12:56:00
8:56 AM,72.0,64.0,76,29.97,10.0,SSW,8.1,-,N/A,,Mostly Cloudy,200,2013-07-25 13:56:00
9:56 AM,75.9,66.0,71,29.98,10.0,SSW,9.2,-,N/A,,Mostly Cloudy,210,2013-07-25 14:56:00
10:56 AM,75.9,66.0,71,29.97,10.0,SSW,8.1,-,N/A,,Mostly Cloudy,200,2013-07-25 15:56:00
11:56 AM,79.0,66.0,64,29.97,10.0,Calm,Calm,-,N/A,,Mostly Cloudy,0,2013-07-25 16:56:00
12:56 PM,79.0,66.9,66,29.98,10.0,West,5.8,-,N/A,,Overcast,280,2013-07-25 17:56:00
1:56 PM,80.1,66.0,62,29.96,10.0,Calm,Calm,-,N/A,,Overcast,0,2013-07-25 18:56:00
2:56 PM,81.0,69.1,67,29.94,10.0,NNE,5.8,-,N/A,,Mostly Cloudy,20,2013-07-25 19:56:00
3:56 PM,80.1,69.1,69,29.94,10.0,NNE,9.2,-,N/A,,Mostly Cloudy,20,2013-07-25 20:56:00
4:56 PM,80.1,68.0,67,29.94,10.0,NNW,6.9,-,N/A,,Mostly Cloudy,340,2013-07-25 21:56:00
5:56 PM,82.0,66.9,60,29.92,10.0,North,9.2,-,N/A,,Mostly Cloudy,10,2013-07-25 22:56:00
6:56 PM,80.1,64.9,60,29.92,10.0,North,10.4,-,N/A,,Scattered Clouds,350,2013-07-25 23:56:00
7:56 PM,78.1,63.0,60,29.93,10.0,NNW,9.2,-,N/A,,Scattered Clouds,330,2013-07-26 00:56:00
8:56 PM,73.9,63.0,68,29.95,10.0,NNW,8.1,-,N/A,,Partly Cloudy,330,2013-07-26 01:56:00
9:56 PM,71.1,62.1,73,29.97,10.0,North,3.5,-,N/A,,Mostly Cloudy,360,2013-07-26 02:56:00
10:56 PM,69.1,62.1,78,29.98,10.0,NNW,3.5,-,N/A,,Scattered Clouds,330,2013-07-26 03:56:00
11:56 PM,68.0,62.1,81,29.99,10.0,Calm,Calm,-,N/A,,Mostly Cloudy,0,2013-07-26 04:56:00